Home > Weather > St. Croix Falls > Past weeks

Flag for USA Weather for the Past 2 Weeks in St. Croix Falls, Wisconsin, USA

Now
39 °F

Clear.


Feels Like: 39 °F
Forecast: 44 / 69 °F
Wind: No wind

Location: L O Simenstad Municipal Airport

Current Time: May 3, 2016 at 6:25:44 AM

Latest Report: May 3, 2016 at 5:55 AM


Visibility: 10 mi

Pressure: 29.94 "Hg

Humidity: 100%

Dew Point: 39 °F

Location of St. Croix FallsLocation

Historic Weather in St. Croix Falls — Graph

°F

St. Croix Falls Temperature Yesterday

Maximum temperature yesterday: 66 °F (at 4:55 PM)
Minimum temperature yesterday: 34 °F (at 5:55 AM)
Average temperature yesterday: 51 °F

High & Low Weather Summary for the Past Weeks

 TemperatureHumidityPressure
High76 °F (Apr 18, 2:55 PM)100% (Apr 19, 4:15 AM)30.30 "Hg (Apr 19, 4:15 AM)
Low34 °F (May 2, 5:55 AM)25% (May 2, 5:35 PM)29.59 "Hg (Apr 25, 8:35 AM)
Average51 °F72%30.05 "Hg
* Reported Apr 18 5:15 AM — May 3 5:15 AM, St. Croix Falls, Weather by CustomWeather, © 2016

Note: Actual official high and low records may vary slightly from our data, if they occured in-between our weather recording intervals... More about our weather records

Advertising

St. Croix Falls Weather History for the Previous 24 Hours

Scroll right to see more
 ConditionsComfort  
Time TempWeatherWind HumidityBarometerVisibility
5:15 AM
Tue, May 3
38 °FClear.No wind100%29.96 "Hg10 mi
4:55 AM39 °FClear.No wind100%29.96 "Hg10 mi
4:15 AM39 °FClear.No wind100%29.97 "Hg10 mi
3:55 AM38 °FClear.No wind100%29.97 "Hg10 mi
3:15 AM39 °FClear.No wind100%29.97 "Hg10 mi
2:55 AM40 °FClear.No wind99%29.98 "Hg10 mi
2:15 AM40 °FClear.No wind88%29.99 "Hg10 mi
1:55 AM42 °FClear.No wind81%29.99 "Hg10 mi
1:35 AM41 °FClear.No wind98%29.99 "Hg10 mi
1:15 AM42 °FClear.No wind100%30.00 "Hg10 mi
12:35 AM44 °FClear.No wind80%30.00 "Hg10 mi
11:55 PM
Mon, May 2
44 °FClear.No wind80%30.01 "Hg10 mi
11:35 PM46 °FClear.No wind79%30.02 "Hg10 mi
11:15 PM47 °FClear.No wind74%30.02 "Hg10 mi
10:55 PM48 °FClear.No wind67%30.02 "Hg10 mi
10:15 PM51 °FClear.No wind57%30.02 "Hg10 mi
9:55 PM50 °FClear.No wind58%30.02 "Hg10 mi
9:35 PM50 °FClear.No wind61%30.02 "Hg10 mi
9:15 PM52 °FSunny.5 mph55%30.02 "Hg10 mi
8:55 PM54 °FSunny.5 mph54%30.02 "Hg10 mi
8:15 PM60 °FScattered clouds.5 mph33%30.02 "Hg10 mi
7:35 PM64 °FPartly sunny.No wind29%30.03 "Hg10 mi
7:15 PM64 °FSunny.No wind27%30.03 "Hg10 mi
6:55 PM65 °FSunny.3 mph28%30.02 "Hg10 mi
6:15 PM65 °FSunny.6 mph25%30.02 "Hg10 mi
5:55 PM66 °FSunny.6 mph25%30.02 "Hg10 mi
5:35 PM66 °FSunny.8 mph25%30.03 "Hg10 mi
5:15 PM66 °FSunny.5 mph26%30.03 "Hg10 mi
4:55 PM66 °FSunny.6 mph28%30.03 "Hg10 mi
4:15 PM66 °FSunny.5 mph27%30.04 "Hg10 mi
3:55 PM66 °FSunny.8 mph29%30.04 "Hg10 mi
3:35 PM66 °FSunny.5 mph27%30.05 "Hg10 mi
3:15 PM65 °FSunny.3 mph28%30.06 "Hg10 mi
2:55 PM65 °FSunny.No wind30%30.07 "Hg10 mi
2:35 PM65 °FScattered clouds.5 mph31%30.07 "Hg10 mi
2:15 PM64 °FScattered clouds.No wind29%30.08 "Hg10 mi
1:55 PM64 °FSunny.5 mph31%30.09 "Hg10 mi
1:35 PM64 °FSunny.3 mph33%30.09 "Hg10 mi
1:15 PM63 °FSunny.3 mph32%30.10 "Hg10 mi
12:55 PM63 °FSunny.3 mph34%30.11 "Hg10 mi
12:15 PM62 °FSunny.3 mph37%30.12 "Hg10 mi
11:55 AM60 °FSunny.5 mph38%30.12 "Hg10 mi
11:35 AM60 °FSunny.5 mph40%30.13 "Hg10 mi
11:15 AM59 °FSunny.7 mph43%30.13 "Hg10 mi
10:55 AM58 °FSunny.5 mph48%30.13 "Hg10 mi
10:35 AM56 °FSunny.No wind50%30.13 "Hg10 mi
10:15 AM55 °FSunny.No wind51%30.14 "Hg10 mi
9:55 AM53 °FSunny.No wind54%30.14 "Hg10 mi
9:35 AM52 °FSunny.No wind55%30.15 "Hg10 mi
9:15 AM50 °FSunny.No wind60%30.14 "Hg10 mi
8:55 AM49 °FSunny.No wind65%30.15 "Hg10 mi
8:35 AM47 °FSunny.No wind72%30.15 "Hg10 mi
8:15 AM44 °FSunny.No wind77%30.15 "Hg10 mi
7:55 AM41 °FSunny.No wind93%30.15 "Hg10 mi
7:35 AM40 °FSunny.No wind100%30.15 "Hg10 mi
7:15 AM37 °FSunny.No wind100%30.15 "Hg10 mi
6:55 AM35 °FClear.No wind100%30.15 "Hg10 mi
6:35 AM34 °FClear.No wind100%30.14 "Hg10 mi
6:15 AM34 °FClear.No wind100%30.14 "Hg10 mi
Weather by CustomWeather, © 2016

See weather overviewHow to use our weather pages